ON7HN-2 Weather Reports


Display with metric or nautical units.
time (UTC)temp
F
wind
direction
speed
MPH
gust
MPH
rain 1hr
in
rain 24hr
in
rain mn
in
humidity
%
barometer
mb
20260901231505 58 342 0.0 1.0 0.00 0.00 0.00 83 1019.8
20260901231010 58 203 1.0 2.0 0.00 0.00 0.00 83 1020.1
20260901230506 58 354 0.0 0.0 0.00 0.00 0.00 83 1019.6
20260901230010 58 327 1.0 1.0 0.00 0.00 0.00 83 1020.1
20260901225506 58 348 1.0 2.0 0.00 0.00 0.00 83 1019.9
20260901225006 58 356 0.0 1.0 0.00 0.00 0.00 83 1020.1
20260901224505 58 23 0.0 0.0 0.00 0.00 0.00 83 1019.8
20260901224005 58 9 0.0 0.0 0.00 0.00 0.00 82 1019.8
20260901223505 58 352 0.0 1.0 0.00 0.00 0.00 82 1019.9
20260901223006 58 36 0.0 1.0 0.00 0.00 0.00 82 1020.2
20260901222506 58 18 0.0 1.0 0.00 0.00 0.00 82 1019.8
20260901222005 59 43 0.0 1.0 0.00 0.00 0.00 81 1020.2
20260901221505 59 356 0.0 0.0 0.00 0.00 0.00 81 1019.9
20260901221006 59 354 0.0 0.0 0.00 0.00 0.00 80 1020.1
20260901220505 59 15 0.0 0.0 0.00 0.00 0.00 80 1020.1
20260901220006 59 355 0.0 1.0 0.00 0.00 0.00 80 1020.1
20260901215506 59 347 0.0 1.0 0.00 0.00 0.00 80 1019.9
20260901215006 59 355 0.0 0.0 0.00 0.00 0.00 80 1019.9
20260901214506 59 343 0.0 1.0 0.00 0.00 0.00 80 1020.4
20260901214005 59 30 0.0 1.0 0.00 0.00 0.00 80 1019.9
20260901213510 59 337 0.0 1.0 0.00 0.00 0.00 79 1020.1
20260901213006 60 52 1.0 1.0 0.00 0.00 0.00 79 1019.9
20260901212506 60 199 1.0 1.0 0.00 0.00 0.00 78 1020.1
20260901212011 60 338 0.0 1.0 0.00 0.00 0.00 78 1020.1
20260901211510 60 351 0.0 1.0 0.00 0.00 0.00 77 1020.1
20260901211006 60 177 1.0 1.0 0.00 0.00 0.00 77 1019.9
20260901210506 60 198 1.0 2.0 0.00 0.00 0.00 78 1020.1
20260901210006 61 191 1.0 1.0 0.00 0.00 0.00 77 1020.3
20260901205506 61 6 0.0 1.0 0.00 0.00 0.00 76 1020.2
20260901205005 61 15 0.0 1.0 0.00 0.00 0.00 76 1020.1
20260901204505 61 6 0.0 0.0 0.00 0.00 0.00 76 1020.2
20260901204006 61 349 0.0 0.0 0.00 0.00 0.00 76 1020.5
20260901203510 62 19 0.0 0.0 0.00 0.00 0.00 76 1020.3
20260901203005 62 358 0.0 0.0 0.00 0.00 0.00 76 1020.3
20260901202505 62 13 0.0 0.0 0.00 0.00 0.00 76 1020.4
20260901202010 62 18 0.0 0.0 0.00 0.00 0.00 75 1020.5
20260901201505 62 359 0.0 0.0 0.00 0.00 0.00 75 1020.5
20260901201006 62 14 0.0 0.0 0.00 0.00 0.00 75 1020.4
20260901200506 62 351 0.0 1.0 0.00 0.00 0.00 75 1020.4
20260901200005 63 7 0.0 0.0 0.00 0.00 0.00 74 1020.4
20260901195511 63 359 0.0 0.0 0.00 0.00 0.00 74 1020.2
20260901195006 63 0 0.0 1.0 0.00 0.00 0.00 73 1020.3
20260901194510 63 4 0.0 0.0 0.00 0.00 0.00 74 1020.1
20260901194006 63 14 0.0 0.0 0.00 0.00 0.00 73 1020.2
20260901193505 63 3 0.0 0.0 0.00 0.00 0.00 73 1020.1
20260901193005 63 5 0.0 1.0 0.00 0.00 0.00 72 1019.9
20260901192506 64 8 0.0 0.0 0.00 0.00 0.00 73 1020.1
20260901192006 64 3 0.0 0.0 0.00 0.00 0.00 72 1020.1
20260901191505 64 18 0.0 0.0 0.00 0.00 0.00 72 1019.9
20260901191006 64 8 0.0 0.0 0.00 0.00 0.00 72 1019.7
20260901190505 63 5 0.0 0.0 0.00 0.00 0.00 73 1020.2
20260901190005 64 358 0.0 0.0 0.00 0.00 0.00 72 1019.8
20260901185506 64 341 0.0 0.0 0.00 0.00 0.00 72 1020.1
20260901185006 64 359 1.0 1.0 0.00 0.00 0.00 71 1019.8
20260901184505 64 351 0.0 1.0 0.00 0.00 0.00 72 1019.8
20260901184005 65 358 1.0 1.0 0.00 0.00 0.00 70 1019.6
20260901183506 65 2 0.0 1.0 0.00 0.00 0.00 68 1019.6
20260901183010 65 359 1.0 2.0 0.00 0.00 0.00 67 1019.7
20260901182506 65 348 1.0 2.0 0.00 0.00 0.00 67 1019.6
20260901182006 66 26 1.0 2.0 0.00 0.00 0.00 61 1019.6
20260901181505 67 342 1.0 1.0 0.00 0.00 0.00 60 1019.6
20260901181011 67 271 1.0 1.0 0.00 0.00 0.00 60 1019.4
20260901180511 67 347 1.0 1.0 0.00 0.00 0.00 59 1019.5
20260901180006 68 337 1.0 2.0 0.00 0.00 0.00 59 1019.6
20260901175510 68 282 1.0 2.0 0.00 0.00 0.00 58 1019.6
20260901175006 68 9 0.0 1.0 0.00 0.00 0.00 58 1019.4
20260901174510 68 359 0.0 1.0 0.00 0.00 0.00 58 1019.3
20260901174008 69 359 0.0 2.0 0.00 0.00 0.00 58 1019.4
20260901173505 69 359 0.0 1.0 0.00 0.00 0.00 57 1019.5
20260901173006 69 2 0.0 1.0 0.00 0.00 0.00 56 1019.5
20260901172506 70 2 2.0 3.0 0.00 0.00 0.00 55 1019.6
20260901172006 70 306 2.0 2.0 0.00 0.00 0.00 54 1019.5
20260901171506 70 220 2.0 3.0 0.00 0.00 0.00 55 1019.6
20260901171006 70 328 1.0 1.0 0.00 0.00 0.00 56 1019.5
20260901170510 69 287 2.0 3.0 0.00 0.00 0.00 56 1019.7
20260901170011 69 213 2.0 3.0 0.00 0.00 0.00 56 1019.6
20260901165506 70 298 3.0 5.0 0.00 0.00 0.00 55 1019.6
20260901165005 70 126 0.0 1.0 0.00 0.00 0.00 57 1019.6
20260901164510 70 263 1.0 2.0 0.00 0.00 0.00 55 1019.6
20260901164005 70 357 1.0 2.0 0.00 0.00 0.00 55 1019.7
20260901163506 71 317 2.0 2.0 0.00 0.00 0.00 53 1019.6
20260901163006 71 209 2.0 3.0 0.00 0.00 0.00 53 1019.6
20260901162510 71 257 4.0 5.0 0.00 0.00 0.00 52 1019.6
20260901162010 71 21 1.0 1.0 0.00 0.00 0.00 52 1019.5
20260901161506 72 329 2.0 3.0 0.00 0.00 0.00 52 1019.3
20260901161005 72 270 2.0 3.0 0.00 0.00 0.00 51 1019.5
20260901160505 72 189 1.0 2.0 0.00 0.00 0.00 52 1019.3
20260901160006 72 283 2.0 3.0 0.00 0.00 0.00 54 1019.6
20260901155505 71 294 2.0 3.0 0.00 0.00 0.00 54 1019.5
20260901155005 71 280 2.0 4.0 0.00 0.00 0.00 53 1019.5
20260901154505 72 5 1.0 2.0 0.00 0.00 0.00 53 1019.4
20260901154006 72 344 2.0 4.0 0.00 0.00 0.00 51 1019.4
20260901153506 73 258 2.0 3.0 0.00 0.00 0.00 50 1019.6
20260901153005 72 276 3.0 4.0 0.00 0.00 0.00 52 1019.3
20260901152506 72 324 3.0 4.0 0.00 0.00 0.00 52 1019.5
20260901152005 72 14 2.0 3.0 0.00 0.00 0.00 53 1019.2
20260901151505 72 20 1.0 2.0 0.00 0.00 0.00 54 1019.4
20260901151011 72 339 1.0 2.0 0.00 0.00 0.00 53 1019.3
20260901150505 72 344 2.0 3.0 0.00 0.00 0.00 53 1019.2
20260901150005 72 210 2.0 4.0 0.00 0.00 0.00 54 1019.4
20260901145505 72 175 1.0 2.0 0.00 0.00 0.00 55 1019.4
20260901145006 73 276 2.0 3.0 0.00 0.00 0.00 53 1019.2
20260901144510 74 258 2.0 3.0 0.00 0.00 0.00 53 1019.2
20260901144006 73 340 2.0 4.0 0.00 0.00 0.00 55 1019.6
20260901143505 73 298 2.0 4.0 0.00 0.00 0.00 53 1019.6
20260901143006 73 17 4.0 5.0 0.00 0.00 0.00 54 1019.5
20260901142506 73 21 0.0 1.0 0.00 0.00 0.00 56 1019.5
20260901142005 70 204 1.0 2.0 0.00 0.00 0.00 62 1019.4
20260901141505 70 5 0.0 1.0 0.00 0.00 0.00 58 1019.6
20260901141005 70 343 1.0 2.0 0.00 0.00 0.00 61 1019.6
20260901140505 72 250 5.0 8.0 0.00 0.00 0.00 58 1019.6
20260901140005 72 291 1.0 2.0 0.00 0.00 0.00 58 1019.5
20260901135506 73 341 2.0 3.0 0.00 0.00 0.00 58 1019.6
20260901135005 72 293 2.0 4.0 0.00 0.00 0.00 56 1019.6
20260901134506 72 294 4.0 4.0 0.00 0.00 0.00 58 1019.7
20260901134006 73 326 3.0 4.0 0.00 0.00 0.00 58 1019.9
20260901133506 72 270 3.0 5.0 0.00 0.00 0.00 57 1019.6
20260901133006 70 341 1.0 3.0 0.00 0.00 0.00 62 1019.6
20260901132505 71 349 0.0 1.0 0.00 0.00 0.00 60 1019.7
20260901132010 72 332 1.0 3.0 0.00 0.00 0.00 58 1019.9
20260901131505 72 292 2.0 4.0 0.00 0.00 0.00 57 1019.6
20260901131005 71 0 2.0 3.0 0.00 0.00 0.00 59 1019.7
20260901130510 71 271 3.0 4.0 0.00 0.00 0.00 62 1019.9
20260901130005 72 348 1.0 2.0 0.00 0.00 0.00 60 1019.7
20260901125505 72 298 3.0 5.0 0.00 0.00 0.00 60 1019.6
20260901125006 72 13 1.0 2.0 0.00 0.00 0.00 60 1019.7
20260901124510 73 234 2.0 3.0 0.00 0.00 0.00 59 1019.6
20260901124006 72 44 2.0 3.0 0.00 0.00 0.00 62 1019.8
20260901123510 72 337 1.0 2.0 0.00 0.00 0.00 62 1019.6
20260901123006 71 325 2.0 3.0 0.00 0.00 0.00 63 1020.1
20260901122505 70 324 2.0 3.0 0.00 0.00 0.00 65 1019.6
20260901122005 70 349 4.0 8.0 0.00 0.00 0.00 64 1020.2
20260901121511 70 6 3.0 6.0 0.00 0.00 0.00 62 1019.8
20260901121005 71 356 2.0 3.0 0.00 0.00 0.00 64 1019.7
20260901120511 70 250 3.0 5.0 0.00 0.00 0.00 63 1019.9
20260901120006 70 310 4.0 6.0 0.00 0.00 0.00 65 1019.7
20260901115506 69 312 0.0 2.0 0.00 0.00 0.00 67 1019.8
20260901115006 68 306 7.0 10.0 0.00 0.00 0.00 67 1020.1
20260901114506 69 39 2.0 3.0 0.00 0.00 0.00 66 1019.8
20260901114010 70 259 2.0 4.0 0.00 0.00 0.00 65 1019.6
20260901113506 70 295 3.0 4.0 0.00 0.00 0.00 67 1019.9
20260901113006 70 214 5.0 8.0 0.00 0.00 0.00 66 1019.7
20260901112506 70 309 6.0 6.0 0.00 0.00 0.00 67 1019.9
20260901112010 71 234 2.0 3.0 0.00 0.00 0.00 60 1019.7
20260901111506 71 244 4.0 5.0 0.00 0.00 0.00 60 1019.8
20260901111011 69 299 1.0 1.0 0.00 0.00 0.00 62 1019.6
20260901110506 70 227 4.0 6.0 0.00 0.00 0.00 60 1019.7
20260901110005 70 257 1.0 2.0 0.00 0.00 0.00 64 1019.9
20260901105505 70 173 4.0 5.0 0.00 0.00 0.00 65 1019.9
20260901105005 69 160 2.0 4.0 0.00 0.00 0.00 65 1019.8
20260901104506 68 219 2.0 3.0 0.00 0.00 0.00 69 1019.8
20260901104006 68 286 2.0 3.0 0.00 0.00 0.00 69 1019.8
20260901103505 68 242 2.0 4.0 0.00 0.00 0.00 70 1019.8
20260901103005 68 350 3.0 4.0 0.00 0.00 0.00 69 1019.8
20260901102505 69 335 1.0 2.0 0.00 0.00 0.00 68 1019.6
20260901102005 66 23 0.0 0.0 0.00 0.00 0.00 73 1019.6
20260901101506 66 315 2.0 3.0 0.00 0.00 0.00 75 1019.6
20260901101006 66 359 2.0 3.0 0.00 0.00 0.00 76 1019.9
20260901100506 67 310 4.0 5.0 0.00 0.00 0.00 74 1019.7
20260901100005 67 288 0.0 2.0 0.00 0.00 0.00 72 1019.6
20260901095506 70 200 2.0 3.0 0.00 0.00 0.00 71 1019.8
20260901095006 70 328 1.0 3.0 0.00 0.00 0.00 68 1019.7
20260901094505 70 271 3.0 4.0 0.00 0.00 0.00 67 1019.9
20260901094006 69 39 1.0 2.0 0.00 0.00 0.00 68 1019.8
20260901093506 70 275 1.0 3.0 0.00 0.00 0.00 69 1019.8
20260901093005 69 347 0.0 1.0 0.00 0.00 0.00 71 1019.7
20260901092505 69 35 2.0 3.0 0.00 0.02 0.00 71 1019.8
20260901092005 68 261 2.0 3.0 0.00 0.02 0.00 70 1019.7
20260901091506 67 0 1.0 2.0 0.00 0.02 0.00 74 1019.6
20260901091006 66 79 1.0 2.0 0.00 0.02 0.00 75 1019.8
20260901090505 67 27 3.0 4.0 0.00 0.02 0.00 74 1019.6
20260901090011 68 339 2.0 2.0 0.00 0.02 0.00 74 1019.6
20260901085511 67 9 1.0 2.0 0.00 0.02 0.00 75 1019.6
20260901085005 68 281 2.0 2.0 0.00 0.02 0.00 75 1019.6
20260901084505 68 314 2.0 2.0 0.00 0.02 0.00 75 1019.4
20260901084010 67 19 0.0 1.0 0.00 0.02 0.00 78 1019.4
20260901083506 68 276 1.0 2.0 0.00 0.02 0.00 77 1019.5
20260901083006 67 311 3.0 4.0 0.00 0.02 0.00 78 1019.4
20260901082505 67 323 0.0 1.0 0.00 0.02 0.00 78 1019.3
20260901082005 66 274 2.0 2.0 0.00 0.02 0.00 79 1019.4
20260901081506 66 115 0.0 1.0 0.00 0.02 0.00 81 1019.5
20260901081006 66 219 2.0 3.0 0.00 0.02 0.00 80 1019.5
20260901080505 66 18 0.0 1.0 0.00 0.02 0.00 81 1019.3
20260901080006 66 270 0.0 1.0 0.00 0.02 0.00 81 1019.2
20260901075505 65 304 0.0 2.0 0.00 0.02 0.00 83 1019.4
20260901075006 65 352 1.0 1.0 0.00 0.02 0.00 84 1019.2
20260901074506 65 292 1.0 2.0 0.00 0.02 0.00 84 1019.1
20260901074006 64 10 0.0 1.0 0.00 0.02 0.00 85 1019.2
20260901073505 63 359 1.0 2.0 0.00 0.02 0.00 87 1019.1
20260901073006 63 253 1.0 2.0 0.00 0.02 0.00 88 1019.1
20260901072506 63 282 2.0 3.0 0.00 0.02 0.00 87 1019.0
20260901072005 63 197 2.0 2.0 0.00 0.02 0.00 87 1019.3
20260901071506 63 279 1.0 2.0 0.00 0.02 0.00 88 1018.9
20260901071006 62 346 0.0 1.0 0.00 0.02 0.00 90 1018.8
20260901070505 62 356 0.0 1.0 0.00 0.02 0.00 91 1018.8
20260901070011 61 358 0.0 1.0 0.00 0.02 0.00 91 1018.7
20260901065505 61 2 0.0 0.0 0.00 0.02 0.00 92 1018.7
20260901065010 61 9 0.0 1.0 0.00 0.02 0.00 92 1018.4
20260901064506 61 274 2.0 2.0 0.00 0.02 0.00 93 1018.7
20260901064005 61 337 0.0 1.0 0.00 0.02 0.00 93 1018.7
20260901063506 61 23 0.0 0.0 0.00 0.02 0.00 94 1018.7
20260901063011 61 14 0.0 0.0 0.00 0.02 0.00 94 1018.7
20260901062506 60 317 0.0 1.0 0.00 0.02 0.00 94 1018.6
20260901062005 60 4 0.0 0.0 0.00 0.02 0.00 95 1018.7
20260901061506 60 173 0.0 0.0 0.00 0.02 0.00 95 1018.5
20260901061005 60 6 0.0 0.0 0.00 0.02 0.00 96 1018.7
20260901060505 59 346 1.0 1.0 0.00 0.03 0.00 96 1018.6
20260901060006 59 346 0.0 0.0 0.00 0.03 0.00 96 1018.7
20260901055511 59 351 0.0 1.0 0.00 0.04 0.00 96 1018.3
20260901055005 59 337 0.0 1.0 0.00 0.05 0.00 96 1018.2
20260901054505 59 355 0.0 0.0 0.00 0.09 0.00 96 1018.3
20260901054005 59 6 0.0 0.0 0.00 0.11 0.00 96 1018.0
20260901053505 59 6 0.0 0.0 0.00 0.11 0.00 96 1018.0
20260901053006 59 2 0.0 0.0 0.00 0.12 0.00 96 1018.2
20260901052510 59 1 0.0 0.0 0.00 0.13 0.00 96 1018.0
20260901052005 59 354 0.0 0.0 0.00 0.13 0.00 96 1018.2
20260901051505 59 294 1.0 1.0 0.00 0.13 0.00 96 1017.8
20260901051010 59 8 0.0 0.0 0.00 0.13 0.00 96 1018.1
20260901050505 59 346 0.0 0.0 0.00 0.13 0.00 96 1017.8
20260901050005 59 149 0.0 0.0 0.00 0.13 0.00 96 1017.8
20260901045505 59 3 0.0 0.0 0.00 0.13 0.00 96 1017.6
20260901045010 59 347 0.0 0.0 0.00 0.13 0.00 96 1017.7
20260901044507 59 324 0.0 1.0 0.00 0.13 0.00 96 1017.5
20260901044005 59 4 0.0 1.0 0.00 0.13 0.00 96 1017.8
20260901043510 59 298 2.0 2.0 0.00 0.13 0.00 96 1017.7
20260901043010 59 12 0.0 0.0 0.00 0.13 0.00 96 1017.6
20260901042510 59 355 0.0 1.0 0.00 0.13 0.00 96 1017.5
20260901042006 59 17 0.0 0.0 0.00 0.13 0.00 96 1017.4
20260901041505 59 342 0.0 1.0 0.00 0.13 0.00 96 1017.6
20260901041006 60 41 1.0 2.0 0.00 0.13 0.00 96 1017.3
20260901040506 60 7 0.0 1.0 0.00 0.13 0.00 96 1017.4
20260901040005 60 333 1.0 2.0 0.00 0.13 0.00 96 1017.4
20260901035505 60 269 1.0 1.0 0.00 0.13 0.00 95 1017.3
20260901035005 60 159 1.0 1.0 0.00 0.13 0.00 95 1017.3
20260901034505 60 226 1.0 2.0 0.00 0.13 0.00 95 1017.3
20260901034010 60 257 2.0 2.0 0.00 0.13 0.00 95 1017.1
20260901033511 60 44 2.0 3.0 0.00 0.13 0.00 95 1017.2
20260901033005 60 39 0.0 0.0 0.00 0.13 0.00 95 1017.2
20260901032511 60 17 0.0 0.0 0.00 0.13 0.00 95 1017.2
20260901032006 60 340 0.0 1.0 0.00 0.13 0.00 95 1017.3
20260901031506 60 268 0.0 1.0 0.00 0.13 0.00 95 1017.3
20260901031006 60 357 0.0 1.0 0.00 0.13 0.00 95 1017.4
20260901030505 60 342 0.0 1.0 0.00 0.13 0.00 95 1017.4
20260901030006 60 252 0.0 1.0 0.00 0.13 0.00 95 1017.4
20260901025505 60 2 0.0 0.0 0.00 0.13 0.00 95 1017.4
20260901025005 60 109 2.0 3.0 0.00 0.13 0.00 95 1017.0
20260901024506 60 222 1.0 2.0 0.00 0.13 0.00 95 1017.1
20260901024005 60 6 0.0 1.0 0.00 0.13 0.00 95 1017.4
20260901023505 61 26 0.0 1.0 0.00 0.13 0.00 94 1017.3
20260901023006 61 211 2.0 3.0 0.00 0.13 0.00 95 1017.0
20260901022511 61 239 0.0 1.0 0.00 0.13 0.00 94 1017.1
20260901022010 61 238 1.0 2.0 0.00 0.13 0.00 94 1017.4
20260901021511 61 213 1.0 2.0 0.00 0.13 0.00 94 1017.2
20260901021010 61 342 0.0 0.0 0.00 0.13 0.00 94 1017.3
20260901020505 61 347 2.0 2.0 0.00 0.13 0.00 94 1017.1
20260901020005 61 18 0.0 0.0 0.00 0.13 0.00 94 1017.3
20260901015505 61 226 1.0 2.0 0.00 0.13 0.00 94 1017.2
20260901015011 61 281 1.0 2.0 0.00 0.13 0.00 94 1017.0
20260901014505 61 187 1.0 2.0 0.00 0.13 0.00 94 1017.0
20260901014005 61 235 2.0 2.0 0.00 0.13 0.00 94 1017.2
20260901013506 61 254 0.0 1.0 0.00 0.13 0.00 94 1017.2
20260901013006 61 343 1.0 1.0 0.00 0.13 0.00 94 1016.8
20260901012505 61 301 2.0 3.0 0.00 0.13 0.00 94 1017.2
20260901012006 61 229 0.0 1.0 0.00 0.13 0.00 94 1016.8
20260901011506 61 185 0.0 0.0 0.00 0.13 0.00 94 1017.2
20260901011005 61 13 0.0 1.0 0.00 0.13 0.00 94 1017.1
20260901010505 61 188 1.0 2.0 0.00 0.13 0.00 94 1017.2
20260901010005 61 348 2.0 2.0 0.00 0.13 0.00 94 1017.1
20260901005510 61 241 2.0 2.0 0.00 0.13 0.00 93 1017.1
20260901005005 61 338 0.0 1.0 0.00 0.13 0.00 93 1017.0
20260901004506 61 328 1.0 2.0 0.00 0.13 0.00 93 1017.2
20260901004005 61 347 1.0 2.0 0.00 0.13 0.00 93 1017.1
20260901003505 61 337 0.0 0.0 0.00 0.13 0.00 93 1017.1
20260901003005 61 344 0.0 0.0 0.00 0.13 0.00 93 1017.0
20260901002505 62 15 0.0 1.0 0.00 0.13 0.00 92 1017.2
20260901002010 62 338 3.0 4.0 0.00 0.13 0.00 92 1017.0
20260901001506 62 346 0.0 1.0 0.00 0.13 0.00 92 1017.1
20260901001005 62 279 3.0 4.0 0.00 0.13 0.00 92 1017.1
20260901000506 62 275 3.0 4.0 0.00 0.13 0.00 92 1017.0
20260901000005 62 326 1.0 2.0 0.00 0.13 0.00 92 1017.2
20260831235511 62 241 3.0 4.0 0.00 0.13 0.00 92 1017.2
20260831235006 62 172 4.0 5.0 0.00 0.13 0.00 92 1017.1
20260831234506 62 341 0.0 1.0 0.00 0.13 0.00 92 1017.2
20260831234005 62 358 0.0 1.0 0.00 0.13 0.00 91 1017.1
20260831233510 62 347 1.0 2.0 0.00 0.13 0.00 91 1017.0
20260831233006 62 310 1.0 2.0 0.00 0.13 0.00 91 1016.9
20260831232506 62 357 1.0 1.0 0.00 0.13 0.00 91 1017.0
20260831232006 62 262 1.0 2.0 0.00 0.13 0.00 91 1017.1